Le nostre stazioni meteo in Italia

Pubblicità
Il mio iltempo24.it
Lampedusa, Italia (16490): Temperatura & dewpoint: 13.06.2019 01:00:00 - 19.06.2019 01:00:00 (CEST)Lampedusa, Italia (16490): velocità del vento: 13.06.2019 01:00:00 - 19.06.2019 01:00:00 (CEST)Lampedusa, Italia (16490): direzione del vento: 13.06.2019 01:00:00 - 19.06.2019 01:00:00 (CEST)Lampedusa, Italia (16490): reduced air pressure: 13.06.2019 01:00:00 - 19.06.2019 01:00:00 (CEST)Lampedusa, Italia (16490): visibility: 13.06.2019 01:00:00 - 19.06.2019 01:00:00 (CEST)Lampedusa, Italia (16490): precipitazioni: 13.06.2019 01:00:00 - 19.06.2019 01:00:00 (CEST)
Data & Tempo tt [°C] td [°C] ff [km/h] ff [kn] dd ppp [hPa] vv [km] rr [mm]
19.06.2019 01:00:00 21,0 21,0 11 6 N - 10 -
19.06.2019 00:00:00 21,0 21,0 11 6 N - 10 -
18.06.2019 23:00:00 21,3 21,0 13 7 NNE 1015,5 10 0,0
18.06.2019 22:00:00 22,0 21,0 13 7 NNE - 10 -
18.06.2019 21:00:00 22,0 20,0 18 10 NNE - 10 -
18.06.2019 20:00:00 22,0 20,6 16 9 N 1014,8 10 -
18.06.2019 19:00:00 23,0 21,0 21 11 N - 10 -
18.06.2019 18:00:00 23,0 21,0 26 14 N - 10 -
18.06.2019 17:00:00 23,5 20,6 28 15 N 1014,2 10 0,0
18.06.2019 16:00:00 24,0 21,0 26 14 N - 10 -
18.06.2019 15:00:00 24,0 21,0 28 15 N - 10 -
18.06.2019 14:00:00 23,6 20,9 26 14 N 1014,6 10 -
18.06.2019 13:00:00 23,0 20,0 24 13 N - 9 -
18.06.2019 12:00:00 - - - - - - - -
18.06.2019 11:00:00 23,0 20,0 24 13 N - 8 -
18.06.2019 10:00:00 22,0 20,0 22 12 N - 8 -
18.06.2019 09:00:00 22,0 20,0 28 15 N - 8 -
18.06.2019 08:00:00 - - - - - - - -
18.06.2019 07:00:00 - - - - - - - -
18.06.2019 06:00:00 - - - - - - - -
18.06.2019 05:00:00 - - - - - - - -
18.06.2019 04:00:00 - - - - - - - -
18.06.2019 03:00:00 - - - - - - - -
18.06.2019 02:00:00 - - - - - - - -
18.06.2019 01:00:00 - - - - - - - -
18.06.2019 00:00:00 22,0 20,0 18 10 N - 8 -
17.06.2019 23:00:00 21,8 20,4 16 9 N 1012,9 8 0,0
17.06.2019 22:00:00 22,0 21,0 15 8 N - 10 -
17.06.2019 21:00:00 22,0 21,0 24 13 NNE - 10 -
17.06.2019 20:00:00 22,3 20,8 24 13 NNE 1011,5 10 -
17.06.2019 19:00:00 23,0 20,0 24 13 NNE - 10 -
17.06.2019 18:00:00 23,0 20,0 28 15 NNE - 10 -
17.06.2019 17:00:00 23,3 20,3 24 13 N 1012,4 10 0,0
17.06.2019 16:00:00 24,0 21,0 21 11 N - 10 -
17.06.2019 15:00:00 23,0 21,0 21 11 N - 10 -
17.06.2019 14:00:00 23,9 20,4 16 9 N 1013,5 8 -
17.06.2019 13:00:00 24,0 21,0 16 9 N - 9 -
17.06.2019 12:00:00 23,0 20,0 21 11 N - 8 -
17.06.2019 11:00:00 22,7 20,3 21 11 N 1012,8 6 0,0
17.06.2019 10:00:00 22,0 20,0 16 9 NO - 6 -
17.06.2019 09:00:00 22,0 21,0 11 6 N - 9 -
17.06.2019 08:00:00 21,1 20,2 13 7 N 1012,4 4,0 -
17.06.2019 07:00:00 21,0 20,0 15 8 N - 8 -
17.06.2019 06:00:00 22,0 20,0 16 9 N - 6 -
17.06.2019 05:00:00 21,4 20,0 11 6 NNO 1012,6 7 0,0
17.06.2019 04:00:00 21,0 20,0 11 6 N - 7 -
17.06.2019 03:00:00 21,0 20,0 11 6 NNO - 7 -
17.06.2019 02:00:00 21,7 19,7 11 6 NNO 1012,9 9 -
17.06.2019 01:00:00 22,0 20,0 15 8 N - 10 -
17.06.2019 00:00:00 22,0 20,0 18 10 N - 9 -
16.06.2019 23:00:00 22,1 19,6 13 7 N 1013,6 9 0,0
16.06.2019 22:00:00 22,0 20,0 11 6 N - 10 -
16.06.2019 21:00:00 22,0 20,0 16 9 N - 10 -
16.06.2019 20:00:00 22,6 19,8 21 11 N 1012,9 10 -
16.06.2019 19:00:00 23,0 20,0 22 12 N - 10 -
16.06.2019 18:00:00 24,0 20,0 26 14 NNO - 10 -
16.06.2019 17:00:00 24,2 20,0 22 12 NNO 1013,7 10 0,0
16.06.2019 16:00:00 25,0 20,0 24 13 N - 10 -
16.06.2019 15:00:00 24,0 20,0 26 14 N - 10 -
16.06.2019 14:00:00 23,8 19,6 26 14 N 1014,6 10 -
16.06.2019 13:00:00 24,0 20,0 28 15 N - 10 -
16.06.2019 12:00:00 24,0 20,0 31 17 N - 10 -
16.06.2019 11:00:00 23,6 19,7 29 16 N 1014,7 10 0,0
16.06.2019 10:00:00 23,0 20,0 31 17 N - 10 -
16.06.2019 09:00:00 23,0 20,0 29 16 N - 10 -
16.06.2019 08:00:00 22,4 20,1 29 16 NNO 1014,0 10 -
16.06.2019 07:00:00 22,0 20,0 28 15 NNO - 10 -
16.06.2019 06:00:00 21,0 20,0 28 15 NNO - 8 -
16.06.2019 05:00:00 21,2 19,9 15 8 NO 1013,6 6 0,0
16.06.2019 04:00:00 22,0 20,0 13 7 O - 8 -
16.06.2019 03:00:00 22,0 19,0 8 4 O - 10 -
16.06.2019 02:00:00 22,2 19,0 16 9 N 1014,7 10 -
16.06.2019 01:00:00 22,0 20,0 16 9 N - 10 -
16.06.2019 00:00:00 22,0 20,0 18 10 N - 10 -
15.06.2019 23:00:00 22,0 20,2 16 9 N 1015,2 8 0,0
15.06.2019 22:00:00 22,0 20,0 16 9 N - 10 -
15.06.2019 21:00:00 23,0 20,0 13 7 N - 10 -
15.06.2019 20:00:00 22,9 20,3 13 7 NNE 1014,1 10 -
15.06.2019 19:00:00 23,0 20,0 15 8 NNE - 10 -
15.06.2019 18:00:00 23,0 20,0 16 9 N - 10 -
15.06.2019 17:00:00 23,6 19,8 15 8 NNE 1014,9 10 0,0
15.06.2019 16:00:00 24,0 20,0 21 11 N - 10 -
15.06.2019 15:00:00 24,0 20,0 22 12 N - 10 -
15.06.2019 14:00:00 24,1 20,0 24 13 N 1015,6 10 -
15.06.2019 13:00:00 24,0 20,0 22 12 N - 10 -
15.06.2019 12:00:00 24,0 20,0 24 13 N - 8 -
15.06.2019 11:00:00 23,6 20,2 21 11 N 1016,5 8 0,0
15.06.2019 10:00:00 23,0 20,0 21 11 N - 8 -
15.06.2019 09:00:00 23,0 20,0 22 12 N - 8 -
15.06.2019 08:00:00 22,6 19,9 24 13 N 1016,0 10 -
15.06.2019 07:00:00 24,0 18,0 15 8 NNO - 10 -
15.06.2019 06:00:00 25,0 17,0 13 7 OSO - 10 -
15.06.2019 05:00:00 24,9 16,8 13 7 E 1013,0 10 0,0
15.06.2019 04:00:00 25,0 17,0 24 13 E - 10 -
15.06.2019 03:00:00 24,0 19,0 21 11 E - 10 -
15.06.2019 02:00:00 24,4 18,2 16 9 N 1017,3 10 -
15.06.2019 01:00:00 24,0 19,0 22 12 ENE - 9 -
15.06.2019 00:00:00 24,0 20,0 34 18 E - 10 -
14.06.2019 23:00:00 23,8 19,8 16 9 N 1018,8 9 0,0
14.06.2019 22:00:00 23,0 20,0 16 9 NE - 10 -
14.06.2019 21:00:00 23,0 20,0 21 11 N - 10 -
14.06.2019 20:00:00 23,6 20,9 16 9 NNO 1016,3 10 -
14.06.2019 19:00:00 24,0 21,0 11 6 ESE - 10 -
14.06.2019 18:00:00 25,0 21,0 9 5 SSE - 10 -
14.06.2019 17:00:00 25,1 20,8 9 5 SSO 1015,3 10 0,0
14.06.2019 16:00:00 26,0 21,0 18 10 E - 10 -
14.06.2019 15:00:00 25,0 21,0 16 9 E - 10 -
14.06.2019 14:00:00 24,8 21,4 16 9 E 1015,4 10 -
14.06.2019 13:00:00 25,0 21,0 15 8 E - 10 -
14.06.2019 12:00:00 25,0 21,0 11 6 ESE - 10 -
14.06.2019 11:00:00 24,4 20,9 11 6 ESE 1016,0 10 0,0
14.06.2019 10:00:00 24,0 21,0 9 5 ESE - 10 -
14.06.2019 09:00:00 23,0 21,0 16 9 NE - 10 -
14.06.2019 08:00:00 22,4 20,9 11 6 ENE 1015,1 10 -
14.06.2019 07:00:00 22,0 20,0 2 1 - - 10 -
14.06.2019 06:00:00 22,0 21,0 8 4 ENE - 10 -
14.06.2019 05:00:00 21,5 20,6 11 6 NE 1013,9 7 0,0
14.06.2019 04:00:00 22,0 21,0 13 7 NE - 6 -
14.06.2019 03:00:00 22,0 21,0 9 5 NNE - 7 -
14.06.2019 02:00:00 21,9 20,9 8 4 ENE 1014,4 8 -
14.06.2019 01:00:00 22,0 21,0 11 6 NNE - 8 -
14.06.2019 00:00:00 22,0 21,0 15 8 NNE - 8 -
13.06.2019 23:00:00 21,9 20,4 8 4 N 1014,8 9 0,0
13.06.2019 22:00:00 22,0 20,0 11 6 N - 10 -
13.06.2019 21:00:00 22,0 21,0 13 7 N - 10 -
13.06.2019 20:00:00 22,3 20,5 13 7 N 1013,2 10 -
13.06.2019 19:00:00 24,0 20,0 9 5 N - 10 -
13.06.2019 18:00:00 24,0 20,0 11 6 N - 10 -
13.06.2019 17:00:00 24,0 20,4 15 8 N 1013,2 10 0,0
13.06.2019 16:00:00 25,0 20,0 16 9 N - 10 -
13.06.2019 15:00:00 24,0 20,0 24 13 N - 10 -
13.06.2019 14:00:00 24,6 19,8 21 11 N 1013,3 10 -
13.06.2019 13:00:00 25,0 20,0 21 11 NNO - 10 -
13.06.2019 12:00:00 24,0 20,0 21 11 NNO - 10 -
13.06.2019 11:00:00 23,7 20,1 21 11 N 1013,9 10 0,0
13.06.2019 10:00:00 23,0 20,0 22 12 N - 8 -
13.06.2019 09:00:00 22,0 20,0 22 12 N - 8 -
13.06.2019 08:00:00 21,0 20,0 24 13 N - 8 -
13.06.2019 07:00:00 21,0 20,0 28 15 N - 6 -
13.06.2019 06:00:00 21,0 20,0 26 14 N - 6 -
13.06.2019 05:00:00 21,0 20,0 26 14 N - 7 -
13.06.2019 04:00:00 21,0 20,0 29 16 NNE - 7 -
13.06.2019 03:00:00 21,0 20,0 29 16 NNE - 8 -
13.06.2019 02:00:00 20,7 19,4 24 13 N 1012,1 8 -
13.06.2019 01:00:00 21,0 19,0 31 17 N - 9 -

tt = Temperatura
td = dewpoint
ff = velocità del vento
dd = direzione del vento
ppp = reduced air pressure
vv = visibility
rr = precipitazioni

Stazioni seguenti

WeatherPro
AMSI
MeteoEarth